DECAYED

STARLINK-2602, 48393 (Decayed)

Orbit data source: Space-Track

STARLINK-2602, 48393 was a payload satellite owned by SpaceX/Seattle (US) in LEO that was launched on Tue, 04 May 2021 UTC via an FALCON 9 launch vehicle from the Air Force Eastern Test Range (AFETR). Payload-class satellites include a variety of spacecraft equipped with specific instruments for various scientific and technological missions. These include communications satellites like Starlink; space stations such as the ISS; scientific satellites like the Hubble; Earth observation satellites from companies like Planet Labs, Umbra, and HawkEye 360; GPS; miniature CubeSats for education and research; and military/defense satellites.

Not visible in the next 10 days
Identifier
48393, 2021-038AS
Orbit
Decayed
Country
Flag of USUS
Related business
Manufacturer
SpaceX/Seattle
Mission
Decayed Commercial Communications
Bus & Motor
STARLINK, Unknown motor
Mass
260 kg wet, ~248 kg dry
Launch date (UTC)
2021-05-04 (5 years ago)
Launch vehicle
FALCON 9
Launch site
Air Force Eastern Test Range (AFETR)
Object type
Payload
Rocket body
Debris
Shape & HBR
Box + 1 Pan, 10.1 m
Radar Cross Section
13.562 m², Large (>1 m²)

Expand to show TLE details & history
Last TLE update: 1 year ago

TLE from 1 year ago
0 STARLINK-2602
1 48393U 21038AS  25034.18555964  .11063833  12321-4  82712-3 0  9999
2 48393  53.0469 312.8901 0005418 248.4945 225.3779 16.39758528207978
Epoch: 2025-02-03T04:27Z
TLE epoch observation values (Epoch: 2025-02-03T04:27:12.352Z)
Latitude
47.12259°
Longitude
-121.18088°
Altitude
174.049 km
Speed
7.806 km/s
True Right ascension
05h 16m 55s
True Declination
46° 56' 09"
Sunlit
Object was in full shadow at epoch
Visualization orbit readout
Latitude
Unknown
Longitude
Unknown
Altitude
Unknown
Speed
Unknown
Apparent Right ascension
Unknown
Apparent Declination
Unknown
Sunlit
N/A
Visualization observer readout
Local Sidereal Time
21:29:39
Azimuth
Unknown
Elevation
Unknown
Doppler factor
Unknown
Orbital elements
Apogee altitude
170.278 km
Perigee altitude
163.186 km
Semi-major axis
6,544.869 km
Eccentricity
0.00054
Inclination
53.0469°
RAAN
312.8901°
Arg. of periapsis
248.4945°
True anomaly
225.33373°
Mean anomaly
225.3779°
Eccentric anomaly
225.35581°
Mean motion
4.09913 °/min
Orbital period
87.82 mins
BSTAR
0.00082712
Loading maneuver chart data...
Computing Atmospheric mass density...

Documentation

Showing up to 5 results
|